GW0203 Weather Reports


time (UTC)temp
C
wind
direction
speed
KPH
gust
KPH
rain 1hr
cm
rain 24hr
cm
rain mn
cm
humidity
%
barometer
mb
20260505041711 10 180 3.2 4.8 0.00 0.00 0.00 94 1011.9
20260505040209 10 227 4.8 6.4 0.00 0.00 0.00 94 1011.7
20260505034704 10 12 4.8 12.9 0.00 0.00 0.00 93 1011.6
20260505033201 9 109 0.0 8.0 0.00 0.00 0.00 93 1011.6
20260505031658 10 99 0.0 8.0 0.00 0.00 0.00 92 1011.7
20260505030158 10 184 3.2 6.4 0.00 0.00 0.00 91 1012.0
20260505024656 10 170 4.8 4.8 0.00 0.00 0.00 91 1012.1
20260505023154 10 239 3.2 4.8 0.00 0.00 0.00 90 1011.7
20260505021650 10 270 1.6 8.0 0.00 0.00 0.00 89 1012.2
20260505020150 10 197 6.4 8.0 0.00 0.00 0.00 87 1012.2
20260505014647 10 201 9.7 9.7 0.00 0.00 0.00 85 1012.1
20260505013144 11 247 8.0 19.3 0.00 0.00 0.00 84 1011.8
20260505011641 11 282 9.7 16.1 0.00 0.00 0.00 83 1011.5
20260505010136 11 283 6.4 17.7 0.00 0.00 0.00 83 1011.2
20260505004632 11 209 11.3 16.1 0.00 0.00 0.00 82 1010.9
20260505003129 12 188 6.4 27.4 0.00 0.00 0.00 78 1010.7
20260505001626 12 220 9.7 19.3 0.00 0.00 0.00 77 1010.5
20260505000124 12 192 3.2 20.9 0.00 0.00 0.00 75 1010.4
20260504234620 12 189 8.0 14.5 0.00 0.00 0.00 73 1010.1
20260504233120 13 227 11.3 17.7 0.00 0.00 0.00 70 1010.0
20260504231618 13 200 11.3 24.1 0.00 0.00 0.00 68 1009.7
20260504230115 13 218 4.8 16.1 0.00 0.00 0.00 66 1009.8
20260504224612 14 246 20.9 30.6 0.00 0.00 0.00 63 1009.7
20260504223107 15 90 0.0 11.3 0.00 0.00 0.00 64 1009.6
20260504221605 16 134 0.0 14.5 0.00 0.00 0.00 58 1009.3
20260504220101 16 177 8.0 14.5 0.00 0.00 0.00 56 1009.3
20260504214556 16 232 6.4 22.5 0.00 0.00 0.00 55 1009.3
20260504213052 16 252 8.0 29.0 0.00 0.00 0.00 56 1009.3
20260504211548 17 175 0.0 29.0 0.00 0.00 0.00 55 1009.1
20260504210044 17 232 9.7 24.1 0.00 0.00 0.00 54 1009.1
20260504204544 18 197 11.3 14.5 0.00 0.00 0.00 53 1009.3
20260504203043 18 81 3.2 16.1 0.00 0.00 0.00 52 1008.8
20260504201539 18 324 3.2 19.3 0.00 0.00 0.00 52 1008.9
20260504200036 17 155 4.8 27.4 0.00 0.00 0.00 50 1008.9
20260504194531 19 212 12.9 20.9 0.00 0.00 0.00 44 1008.8
20260504193028 18 186 11.3 24.1 0.00 0.00 0.00 46 1008.9
20260504191527 18 213 12.9 24.1 0.00 0.00 0.00 45 1008.9
20260504190026 18 232 20.9 40.2 0.00 0.00 0.00 43 1009.0
20260504184521 18 241 19.3 25.7 0.00 0.00 0.00 41 1009.0
20260504183018 19 223 19.3 30.6 0.00 0.00 0.00 43 1009.0
20260504181515 18 200 6.4 24.1 0.00 0.00 0.00 44 1009.3
20260504180010 18 252 17.7 30.6 0.00 0.00 0.00 43 1009.4
20260504174508 19 252 11.3 22.5 0.00 0.00 0.00 39 1009.6
20260504173005 18 228 11.3 35.4 0.00 0.00 0.00 38 1009.4
20260504171500 18 289 11.3 25.7 0.00 0.00 0.00 38 1009.4
20260504081302 8 336 3.2 6.4 0.00 0.00 0.00 67 1011.1
20260504045721 7 201 3.2 4.8 0.00 0.00 0.00 65 1010.8